Regional Weather Roundup
Issued by NWS

Home | Current Version | Previous Version | Graphics & Text | Print | Product List | Glossary Off
Versions: 1 2 3 4 5 6 7 8 9 10 11 12 13 14 15 16 17 18 19 20 21 22 23 24 25 26 27 28 29 30 31 32 33 34 35 36 37 38 39 40 41 42 43 44 45 46 47 48 49 50

000
ASUS43 KMKX 160500
RWRWI

WISCONSIN REGIONAL WEATHER ROUNDUP
NATIONAL WEATHER SERVICE MILWAUKEE/SULLIVAN WI
1200 AM CDT TUE SEP 16 2014

NOTE: "FAIR" INDICATES FEW OR NO CLOUDS BELOW 12,000 FEET WITH NO
SIGNIFICANT WEATHER AND/OR OBSTRUCTIONS TO VISIBILITY.

WIZ001-002-006>008-014>016-023>028-160600-
NORTHWEST WISCONSIN

CITY           SKY/WX    TMP DP  RH WIND       PRES   REMARKS
SUPERIOR ARPT  CLEAR     42  38  87 SW8       30.16S
ASHLAND        CLEAR     43  37  79 SW8       30.16F
HAYWARD        CLEAR     36  35  96 CALM      30.18F
SIREN          CLEAR     38  36  91 CALM      30.20S
RICE LAKE      CLEAR     39  38  97 CALM      30.22S
LADYSMITH      CLEAR     39  37  95 CALM      30.21S
EAU CLAIRE     NOT AVBL
MENOMONIE      CLEAR     45  42  91 CALM      30.21F
NEW RICHMOND   CLEAR     40  40 100 CALM      30.22S
OSCEOLA        CLEAR     39  39 100 CALM      30.24S
$$

WIZ003>005-009-010-017-018-160600-
NORTH CENTRAL WISCONSIN

CITY           SKY/WX    TMP DP  RH WIND       PRES   REMARKS
WOODRUFF       CLEAR     39  37  91 CALM      30.15S
RHINELANDER    CLEAR     32  31  96 W6        30.16F FOG     WCI  26
EAGLE RIVER    PTCLDY    33  33 100 CALM      30.15S FOG
LAND O LAKES   CLEAR     31  31 100 CALM      30.15S
PHILLIPS       CLEAR     38  36  92 W3        30.17S
TOMAHAWK       CLEAR     32  31  98 CALM      30.17F
MEDFORD        CLEAR     37  36  99 SW3       30.19S
MERRILL        PTCLDY    36  35  97 CALM      30.17F
$$

WIZ029-030-035-036-043>047-160600-
CENTRAL WISCONSIN

CITY           SKY/WX    TMP DP  RH WIND       PRES   REMARKS
WAUSAU         CLEAR     43  39  86 NW5       30.17S
MOSINEE        CLEAR     43  39  87 CALM      30.19S
MARSHFIELD     CLEAR     42  38  85 W3        30.19S
STEVENS POINT  CLEAR     37  35  94 CALM      30.19S
WAUPACA        CLEAR     48  42  79 CALM      30.18S
WAUTOMA        NOT AVBL
WISC RAPIDS    CLEAR     41  39  93 CALM      30.21S
CAMP DOUGLAS   NOT AVBL
$$

WIZ011>013-019>022-031-037>040-048>050-160600-
NORTHEAST WISCONSIN

CITY           SKY/WX    TMP DP  RH WIND       PRES   REMARKS
ANTIGO         CLEAR     38  36  91 CALM      30.17S
STURGEON BAY   PTCLDY    52  43  71 N13       30.14S
GREEN BAY      CLEAR     45  43  93 NW7       30.16S
MANITOWOC      NOT AVBL
APPLETON       CLEAR     46  39  76 NW8       30.18R
CLINTONVILLE   CLEAR     45  37  76 CALM      30.18R
OSHKOSH        PTCLDY    49  45  86 NW8       30.17R
$$

WIZ032>034-041-042-053>061-160600-
SOUTHWEST WISCONSIN

CITY           SKY/WX    TMP DP  RH WIND       PRES   REMARKS
LA CROSSE      CLEAR     48  44  86 CALM      30.22S
SPARTA         CLEAR     38  37  99 CALM      30.23S
VIROQUA        FAIR      44  44 100 NW5       30.21S
BOSCOBEL       FOG       44  42  93 CALM      30.23S VSB 1/4
PRAIRIE DU CHI CLEAR     44  42  95 CALM      30.22F
PLATTEVILLE    FAIR      44  43  95 CALM      30.23R
$$

WIZ056-057-062-063-064-067-068-160600-
SOUTH CENTRAL WISCONSIN

CITY           SKY/WX    TMP DP  RH WIND       PRES   REMARKS
BARABOO/DELLS  CLEAR     44  42  93 CALM      30.20S
LONE ROCK      HAZE      46  41  82 W3        30.22S VSB 1/4
WATERTOWN      CLEAR     42  42 100 CALM      30.18R
MADISON        CLEAR     46  43  89 CALM      30.20R
MIDDLETON      FAIR      45  45  99 CALM      30.20S
MONROE         CLEAR     50  45  81 NW8       30.20S
JANESVILLE     CLEAR     46  45  93 CALM      30.19S
$$

WIZ051-052-058>065-066-070>072-160600-
SOUTHEAST WISCONSIN

CITY           SKY/WX    TMP DP  RH WIND       PRES   REMARKS
MILWAUKEE      CLEAR     49  46  90 W5        30.17S
WAUKESHA       CLEAR     43  43 100 W5        30.18S
MILWAUKEE/TIMM CLEAR     46  43  87 CALM      30.18S
RACINE         CLEAR     48  46  93 W6        30.19R
BURLINGTON     CLEAR     38  38 100 CALM      30.18S FOG
KENOSHA        CLEAR     45  45 100 NW6       30.18S
FOND DU LAC    CLEAR     47  44  90 W6        30.17S
SHEBOYGAN      CLEAR     46  44  93 W6        30.15F
WEST BEND      CLEAR     45  41  87 CALM      30.17S
JUNEAU         CLEAR     44  43  97 CALM      30.19S
$$

LSZ147-162-160600-
LAKE SUPERIOR

STATION/POSITION TIME  TEMP    WIND        PRES    WAVE
                       AIR SEA DIR/SP/G            HT/PER
                 (UTC) (F)     (DEG/KT/KT) (MB)    (FT/S)
W MID LAKE BUOY  0350   50 47  240/ 10/ 10 1019.6S   2/ 4
DEVILS ISLAND    0400   51     230/ 12/ 13 1020.7R
PORT WING        0400   47     190/  7/  9 1021.0S
SAXON HARBOR     0400   44     200/  7/  8 1021.3R
$$

LMZ867-665-643>646-160600-
LAKE MICHIGAN

STATION/POSITION TIME  TEMP    WIND        PRES    WAVE
                       AIR SEA DIR/SP/G            HT/PER
                 (UTC) (F)     (DEG/KT/KT) (MB)    (FT/S)
N MID LAKE BUOY  0350   56 58  360/ 10/ 12 1020.0R   1/ 5
NORTHPORT PIER   0400   55      10/  4/  5 1020.3R
KEWAUNEE LAKESHO 0400   50                   N/A
SHEBOYGAN LAKESH 0400   52 49  260/ 11/ 13 1021.4R
PORT WASHINGTON  0400   50     290/  7/ 10 1021.7
ATWATER BUOY     0400   54     280/ 10/ 14 1022.3R
MILWAUKEE LAKESH 0400   51     290/  7/  9   N/A
S MID LAKE BUOY  0350   58 64  340/ 10/ 14 1021.1R   2/ 4
KENOSHA   LAKESH 0400   51     280/  8/ 10 1021.7R
$$

TC  - TEMPERATURE IN CELSIUS
VSB - VISIBILITY IN STATUTE MILES
WCI - WIND CHILL INDEX
HX  - HEAT INDEX




USA.gov is the U.S. government's official web portal to all federal, state and local government web resources and services.